This is the latest recevied weather packets stored in our database for station/object DG5TS-10. If no packets are shown the sender has not sent any weather packets the latest 10 day(s).
| Time | Temp. | Humidity | Pressure | Rain* | Wind** | Luminosity | Snow |
|---|---|---|---|---|---|---|---|
| 1778253537 | 21.67° C | 31% | 1021 hPa | - | - | - | - |
| 1778252636 | 22.78° C | 30% | 1021 hPa | - | - | - | - |
| 1778251736 | 23.33° C | 29% | 1021.1 hPa | - | - | - | - |
| 1778250836 | 23.33° C | 27% | 1021.1 hPa | - | - | - | - |
| 1778249936 | 23.89° C | 27% | 1021.2 hPa | - | - | - | - |
| 1778249036 | 26.67° C | 31% | 1021 hPa | - | - | - | - |
| 1778248136 | 27.22° C | 29% | 1021.1 hPa | - | - | - | - |
| 1778247236 | 28.33° C | 27% | 1021.1 hPa | - | - | - | - |
| 1778246336 | 30° C | 25% | 1021.1 hPa | - | - | - | - |
| 1778245436 | 31.67° C | 24% | 1021.2 hPa | - | - | - | - |
| 1778244535 | 30.56° C | 25% | 1021.3 hPa | - | - | - | - |
| 1778243636 | 31.11° C | 25% | 1021.3 hPa | - | - | - | - |
| 1778242735 | 31.11° C | 23% | 1021.3 hPa | - | - | - | - |
| 1778241835 | 30.56° C | 24% | 1021.2 hPa | - | - | - | - |
| 1778240935 | 30° C | 24% | 1021.2 hPa | - | - | - | - |
| 1778240035 | 27.78° C | 27% | 1021.2 hPa | - | - | - | - |
| 1778239135 | 26.67° C | 28% | 1021.2 hPa | - | - | - | - |
| 1778238235 | 26.67° C | 28% | 1021.3 hPa | - | - | - | - |
| 1778237334 | 25.56° C | 30% | 1021.3 hPa | - | - | - | - |
| 1778236434 | 22.78° C | 33% | 1021.3 hPa | - | - | - | - |
| 1778235534 | 22.22° C | 33% | 1021.4 hPa | - | - | - | - |
| 1778234634 | 22.22° C | 33% | 1021.4 hPa | - | - | - | - |
| 1778233734 | 21.67° C | 34% | 1021.5 hPa | - | - | - | - |
| 1778232834 | 20° C | 36% | 1021.4 hPa | - | - | - | - |
| 1778231934 | 21.11° C | 35% | 1021.4 hPa | - | - | - | - |
* Rain since midnight (hover to see other rain measurements)
** Current wind speed in m/s (hover to see current wind gust speed)